Regional Weather Roundup
Issued by NWS

Home | Current Version | Previous Version | Graphics & Text | Print | Product List | Glossary On
Versions: 1 2 3 4 5 6 7 8 9 10 11 12 13 14 15 16 17 18 19 20 21 22 23 24 25 26 27 28 29 30 31 32 33 34 35 36 37 38 39 40 41 42 43 44 45 46 47 48 49 50
000
ASUS43 KBIS 171010
RWRND

NORTH DAKOTA REGIONAL WEATHER ROUNDUP
NATIONAL WEATHER SERVICE BISMARCK ND
500 AM CDT WED SEP 17 2014

NOTE: "FAIR" INDICATES FEW OR NO CLOUDS BELOW 12,000 FEET WITH NO
SIGNIFICANT WEATHER AND/OR OBSTRUCTIONS TO VISIBILITY.


NDZ001>003-009>011-017-171100-
NORTHWEST NORTH DAKOTA

CITY           SKY/WX    TMP DP  RH WIND       PRES   REMARKS
WILLISTON      CLEAR     40  37  89 CALM      29.93S FOG
MINOT          CLEAR     48  41  76 SW12      29.91S
MINOT AFB      CLEAR     41  39  93 SW2       29.92S
$$

NDZ018>021-031>035-040>046-171100-
SOUTHWEST NORTH DAKOTA

CITY           SKY/WX    TMP DP  RH WIND       PRES   REMARKS
BISMARCK       CLEAR     43  42  97 CALM      29.94S
DICKINSON      PTCLDY    44  40  85 CALM      29.93F
GARRISON         N/A     40  38  93 N5        29.93S
HETTINGER ARPT CLEAR     40  38  93 W5        29.95S
$$

NDZ004>008-012>016-024-026-027-054-171100-
NORTHEAST NORTH DAKOTA

CITY           SKY/WX    TMP DP  RH WIND       PRES   REMARKS
GRAND FORKS    CLEAR     44  41  89 CALM      29.89S
GRND FRKS AFB  CLEAR     43  43  98 W3        29.89S
DEVILS LAKE    CLEAR     46  39  76 CALM      29.90S
$$

NDZ022-023-025-028>030-036>039-047>053-171100-
SOUTHEAST NORTH DAKOTA

CITY           SKY/WX    TMP DP  RH WIND       PRES   REMARKS
FARGO          CLEAR     49  45  86 S7        29.89S
JAMESTOWN      CLEAR     42  40  92 NW3       29.91S
$$




USA.gov is the U.S. government's official web portal to all federal, state and local government web resources and services.